Terminal Aerodrome Forecast
Issued by NWS

Home | Current Version | Previous Version | Text Only | Print | Product List | Glossary On
Versions: 1 2 3 4 5 6 7 8 9 10 11 12 13 14 15 16 17 18 19
153
FTUS46 KSEW 272001 AAA
TAFHQM
TAF AMD
KHQM 272001Z 2720/2818 23012KT P6SM SCT030 SCT250
      TEMPO 2720/2722 BKN030 BKN250
     FM280300 25007KT P6SM OVC022
     FM280900 25004KT 6SM BR OVC010=

USA.gov is the U.S. government's official web portal to all federal, state and local government web resources and services.